Rockwall, TX

4:04 PM CDT on June 23, 2017 (GMT -0500)
Rockwall

Weather History for KF46 - April, 2013

Change the Weather History Date:

Tuesday, April 23, 2013

  Actual Average (KDFW) Record (KDFW)
Temperature  
Mean Temperature 54 °F -  
Max Temperature 66 °F 75 °F 90 °F (1934)
Min Temperature 42 °F 55 °F 41 °F (1907)
Degree Days  
Heating Degree Days 11    
Growing Degree Days 4 (Base 50)    
Moisture  
Dew Point 50 °F    
Average Humidity 84    
Maximum Humidity 94    
Minimum Humidity 71    
Precipitation  
Precipitation 0.00 in - - ()
Sea Level Pressure  
Sea Level Pressure 29.97 in    
Wind  
Wind Speed 13 mph (West)    
Max Wind Speed 21 mph    
Max Gust Speed 30 mph    
Visibility 10 miles    
Events      
Averages and records for this station are not official NWS values.
T = Trace of Precipitation, MM = Missing Value Source: NWS Daily Summary

Daily Weather History Graph

Daily Weather History Graph

Search for Another Location

Airport or City:

Trip Planner

Search our weather history database for the weather conditions in past years. The results will help you decide how hot, cold, wet, or windy it might be!

Date:

Astronomy

Apr. 23, 2013 Rise Set
Actual Time 6:46 AM CDT 8:02 PM CDT
Civil Twilight 6:20 AM CDT 8:27 PM CDT
Nautical Twilight 5:49 AM CDT 8:58 PM CDT
Astronomical Twilight 5:17 AM CDT 9:30 PM CDT
Moon 6:03 PM CDT 5:07 AM CDT
Length of Visible Light 14h 07m
Length of Day
13h 15m
Waxing Gibbous, 94% of the Moon is Illuminated
Apr 23
Waxing Gibbous
Apr 25
Full
May 2
Last Quarter
May 9
New
May 17
First Quarter

Hourly Weather History & Observations

Time (CDT) Temp. Windchill Dew Point Humidity Pressure Visibility Wind Dir Wind Speed Gust Speed Precip Events Conditions
12:15 AM 66.0 °F - 56.5 °F 71% 29.86 in 10.0 mi SSE 12.7 mph 18.4 mph N/A   Clear
12:35 AM 66.0 °F - 56.5 °F 71% 29.86 in 10.0 mi SSE 11.5 mph 18.4 mph N/A   Clear
12:55 AM 66.0 °F - 56.7 °F 72% 29.85 in 10.0 mi SSE 12.7 mph 18.4 mph N/A   Clear
1:15 AM 66.0 °F - 56.8 °F 72% 29.85 in 10.0 mi South 12.7 mph 24.2 mph N/A   Clear
1:35 AM 66.2 °F - 57.2 °F 73% 29.85 in 10.0 mi South 18.4 mph 27.6 mph N/A   Clear
1:55 AM 66.0 °F - 57.6 °F 74% 29.85 in 10.0 mi South 18.4 mph 29.9 mph N/A   Clear
2:15 AM 65.5 °F - 57.6 °F 76% 29.85 in 10.0 mi South 16.1 mph 27.6 mph N/A   Clear
2:35 AM 64.8 °F - 57.2 °F 76% 29.84 in 10.0 mi South 17.3 mph 27.6 mph N/A   Clear
2:55 AM 63.9 °F - 57.2 °F 79% 29.82 in 10.0 mi South 12.7 mph 21.9 mph N/A   Clear
3:15 AM 63.3 °F - 57.0 °F 80% 29.82 in 10.0 mi SSE 16.1 mph 26.5 mph N/A   Clear
3:35 AM 63.1 °F - 57.0 °F 80% 29.81 in 10.0 mi South 20.7 mph 27.6 mph N/A   Clear
3:55 AM 62.8 °F - 56.5 °F 80% 29.82 in 10.0 mi South 18.4 mph 29.9 mph N/A   Clear
4:15 AM 62.1 °F - 56.5 °F 82% 29.82 in 10.0 mi South 15.0 mph 23.0 mph N/A   Scattered Clouds
4:35 AM 62.6 °F - 57.4 °F 83% 29.82 in 10.0 mi South 19.6 mph 24.2 mph N/A   Mostly Cloudy
4:55 AM - - - N/A% 29.82 in 10.0 mi South 16.1 mph 24.2 mph N/A   Overcast
5:15 AM - - - N/A% 29.82 in 10.0 mi South 15.0 mph 23.0 mph N/A   Overcast
5:35 AM 62.6 °F - 58.3 °F 86% 29.90 in 10.0 mi NNW 12.7 mph 18.4 mph N/A   Overcast
5:55 AM 62.6 °F - 58.5 °F 86% 29.88 in 10.0 mi South 15.0 mph 23.0 mph N/A   Overcast
6:15 AM 62.6 °F - 58.5 °F 86% 29.87 in 10.0 mi South 9.2 mph - N/A   Overcast
6:35 AM 62.4 °F - 58.6 °F 87% 29.89 in 10.0 mi SSE 6.9 mph 18.4 mph N/A   Overcast
6:55 AM 62.1 °F - 59.0 °F 90% 29.90 in 10.0 mi South 9.2 mph 18.4 mph N/A   Overcast
7:15 AM 61.7 °F - 59.2 °F 91% 29.90 in 7.0 mi South 10.4 mph 19.6 mph N/A   Overcast
7:35 AM 61.7 °F - 59.5 °F 93% 29.91 in 7.0 mi South 12.7 mph 20.7 mph N/A   Overcast
7:55 AM 61.7 °F - 59.9 °F 94% 29.92 in 7.0 mi South 9.2 mph 20.7 mph N/A   Overcast
8:15 AM 62.1 °F - 60.1 °F 93% 29.92 in 7.0 mi South 6.9 mph - N/A   Overcast
8:35 AM 62.6 °F - 60.3 °F 92% 29.92 in 10.0 mi South 11.5 mph 21.9 mph N/A   Overcast
8:55 AM 62.8 °F - 60.4 °F 92% 29.92 in 10.0 mi SSE 11.5 mph 20.7 mph N/A   Overcast
9:15 AM 63.5 °F - 60.8 °F 91% 29.92 in 10.0 mi SSE 11.5 mph 20.7 mph N/A   Overcast
9:55 AM 64.4 °F - 61.2 °F 89% 29.93 in 10.0 mi South 10.4 mph 23.0 mph N/A   Overcast
10:15 AM 64.9 °F - 61.3 °F 88% 29.94 in 10.0 mi South 10.4 mph 21.9 mph N/A   Overcast
10:35 AM 65.3 °F - 61.7 °F 88% 29.94 in 10.0 mi SSE 12.7 mph 21.9 mph N/A   Overcast
10:55 AM 66.0 °F - 61.9 °F 86% 29.95 in 10.0 mi South 10.4 mph 16.1 mph N/A   Overcast
11:15 AM - - - N/A% 29.96 in 10.0 mi WSW 12.7 mph 21.9 mph N/A   Overcast
11:35 AM 55.6 °F - 53.6 °F 93% 29.98 in 7.0 mi WNW 15.0 mph 21.9 mph N/A   Drizzle
11:55 AM 54.1 °F - 52.2 °F 93% 29.99 in 5.0 mi WNW 9.2 mph 21.9 mph N/A   Drizzle
12:15 PM 52.2 °F - 49.6 °F 91% 30.00 in 7.0 mi WNW 12.7 mph 20.7 mph N/A   Overcast
12:35 PM 50.5 °F - 47.5 °F 89% 30.01 in 10.0 mi WNW 13.8 mph 20.7 mph N/A   Overcast
12:55 PM 50.4 °F - 47.3 °F 89% 30.01 in 10.0 mi NW 11.5 mph - N/A   Overcast
1:15 PM 50.0 °F - 45.9 °F 86% 30.01 in 10.0 mi NW 12.7 mph 23.0 mph N/A   Overcast
1:35 PM 50.4 °F - 46.2 °F 86% 30.01 in 10.0 mi NW 15.0 mph 21.9 mph N/A   Overcast
1:55 PM 50.0 °F - 45.9 °F 86% 30.01 in 10.0 mi NW 11.5 mph 17.3 mph N/A   Overcast
2:15 PM 50.0 °F - 45.5 °F 85% 30.01 in 10.0 mi NNW 13.8 mph - N/A   Overcast
2:35 PM 50.5 °F - 45.7 °F 83% 30.01 in 10.0 mi NW 13.8 mph 17.3 mph N/A   Overcast
2:55 PM 50.4 °F - 45.5 °F 83% 30.01 in 10.0 mi NNW 10.4 mph 17.3 mph N/A   Overcast
3:15 PM 50.2 °F - 45.1 °F 83% 30.01 in 10.0 mi NW 15.0 mph 19.6 mph N/A   Overcast
3:35 PM 50.2 °F - 45.1 °F 83% 30.00 in 10.0 mi NNW 15.0 mph - N/A   Overcast
3:55 PM 50.2 °F - 44.8 °F 82% 30.00 in 10.0 mi NNW 16.1 mph 19.6 mph N/A   Overcast
4:15 PM 49.3 °F - 44.2 °F 83% 30.00 in 10.0 mi NNW 11.5 mph 18.4 mph N/A   Overcast
4:35 PM 48.6 °F - 43.7 °F 83% 30.00 in 10.0 mi NNW 13.8 mph 19.6 mph N/A   Overcast
4:55 PM 48.4 °F - 43.2 °F 82% 30.01 in 10.0 mi NW 16.1 mph - N/A   Overcast
5:15 PM 47.8 °F - 43.0 °F 83% 30.01 in 10.0 mi NNW 12.7 mph 19.6 mph N/A   Overcast
5:35 PM 46.9 °F - 42.1 °F 83% 30.02 in 10.0 mi NNW 16.1 mph 21.9 mph N/A   Overcast
5:55 PM 46.8 °F - 42.1 °F 84% 30.02 in 10.0 mi North 12.7 mph 21.9 mph N/A   Overcast
6:15 PM 46.6 °F - 41.5 °F 83% 30.03 in 10.0 mi North 11.5 mph 21.9 mph N/A   Overcast
6:35 PM 46.4 °F 41.1 °F 41.4 °F 83% 30.03 in 10.0 mi North 11.5 mph 20.7 mph N/A   Overcast
6:55 PM 45.9 °F 39.7 °F 41.2 °F 84% 30.04 in 10.0 mi North 13.8 mph 20.7 mph N/A   Overcast
7:15 PM 45.9 °F 40.4 °F 41.2 °F 84% 30.04 in 10.0 mi North 11.5 mph - N/A   Overcast
7:35 PM 45.5 °F 40.8 °F 41.4 °F 85% 30.04 in 10.0 mi North 9.2 mph 20.7 mph N/A   Overcast
7:55 PM 45.5 °F 40.3 °F 41.2 °F 85% 30.04 in 10.0 mi NNW 10.4 mph 16.1 mph N/A   Overcast
8:15 PM 45.3 °F 40.1 °F 41.0 °F 85% 30.05 in 10.0 mi NNW 10.4 mph 23.0 mph N/A   Overcast
8:35 PM 45.0 °F 38.9 °F 41.0 °F 86% 30.06 in 10.0 mi NNW 12.7 mph 19.6 mph N/A   Overcast
8:55 PM 45.0 °F 38.2 °F 40.8 °F 85% 30.07 in 10.0 mi NNW 15.0 mph - N/A   Overcast
9:15 PM 45.0 °F 38.5 °F 40.1 °F 83% 30.08 in 10.0 mi North 13.8 mph 19.6 mph N/A   Overcast
9:35 PM 45.0 °F 38.9 °F 39.7 °F 82% 30.09 in 10.0 mi NNW 12.7 mph 19.6 mph N/A   Overcast
9:55 PM 44.6 °F 37.8 °F 39.7 °F 83% 30.10 in 10.0 mi NNW 15.0 mph 20.7 mph N/A   Overcast
10:15 PM 44.4 °F 37.9 °F 39.2 °F 82% 30.12 in 10.0 mi NNW 13.8 mph 21.9 mph N/A   Overcast
10:35 PM 44.2 °F 37.3 °F 39.0 °F 82% 30.12 in 10.0 mi North 15.0 mph 19.6 mph N/A   Overcast
10:55 PM 43.9 °F 36.8 °F 39.2 °F 84% 30.14 in 10.0 mi NNW 15.0 mph 23.0 mph N/A   Overcast
11:15 PM 43.0 °F 36.0 °F 39.2 °F 86% 30.14 in 10.0 mi NNW 13.8 mph 18.4 mph N/A   Overcast
11:35 PM 42.8 °F 36.2 °F 38.7 °F 85% 30.15 in 10.0 mi NNW 12.7 mph 23.0 mph N/A   Overcast
11:55 PM 42.3 °F 35.1 °F 38.3 °F 86% 30.16 in 10.0 mi NNW 13.8 mph 26.5 mph N/A   Light Drizzle